Theta_e
331 331 332 334 333 334 334 332 329 328 321 325 328 328 328 328 327 329 330 330 333 332 332 332 333 334 331 326 329 332 333 333 332
329 331 331 333 333 332 332 331 330 326 320 323 326 328 328 328 328 329 328 334 334 334 334 333 334 334 334 334 334 334 333 333 333
327 329 330 330 332 332 331 329 328 321 324 324 325 328 329 329 328 327 327 330 332 333 332 332 333 332 331 330 330 330 331 332 331
327 327 328 329 330 331 330 326 322 322 323 325 326 328 328 328 327 327 327 328 330 331 331 331 330 329 326 326 326 327 327 327 328
327 326 328 329 329 326 323 323 323 325 326 326 327 328 328 327 326 324 323 327 330 330 329 327 327 324 323 323 323 324 324 323 323
324 324 327 327 324 323 323 324 326 326 326 326 325 323 325 326 322 319 318 327 328 327 325 325 323 321 320 319 320 320 319 318 318
321 323 324 323 323 323 325 326 327 326 324 323 319 320 322 320 318 315 317 324 326 323 321 320 319 318 316 315 315 315 315 315 314
322 322 324 324 325 326 327 327 327 327 324 321 318 316 316 315 313 311 315 324 323 320 317 315 314 313 313 312 312 312 312 312 312
324 323 323 324 324 326 326 327 323 323 325 316 314 312 311 310 308 307 309 324 320 317 314 313 311 311 311 311 310 311 311 311 310
326 327 325 323 324 325 327 327 322 317 315 313 310 308 306 305 305 307 314 318 316 313 312 310 308 308 309 309 309 309 309 309 309
329 329 327 324 324 326 327 328 319 314 311 309 308 306 305 304 304 305 310 311 311 309 307 306 306 305 306 307 307 308 308 307 307
330 330 328 325 325 326 327 327 317 314 312 310 307 305 303 302 303 305 305 305 303 304 303 303 303 303 304 305 306 305 305 306 306
329 330 330 326 326 327 327 323 316 313 311 307 305 303 302 301 302 303 303 302 300 299 298 298 298 299 300 302 303 304 304 304 304
328 329 329 327 327 327 325 318 315 314 309 304 302 301 301 301 302 303 302 301 299 298 297 296 294 294 297 299 299 300 301 302 302
328 328 326 326 327 325 319 317 314 312 305 301 300 300 301 301 301 302 301 299 298 297 297 295 294 294 294 295 297 298 298 299 300
328 327 325 327 325 323 319 315 312 305 301 299 299 300 300 300 300 300 299 299 297 297 296 294 294 293 293 292 293 296 296 297 298
328 327 326 326 324 319 317 316 308 301 299 298 298 298 298 300 299 299 299 298 297 296 294 293 293 292 292 292 291 292 295 296 298
328 327 326 326 324 321 317 313 311 302 299 298 299 297 297 296 296 298 298 298 296 295 294 292 292 291 291 291 291 291 294 295 296
327 327 327 326 321 319 315 311 307 305 301 296 296 296 296 293 292 294 295 295 294 293 292 292 291 290 290 289 289 291 293 294 295
326 326 325 322 317 314 313 306 304 305 302 298 295 294 293 293 291 290 292 293 293 293 291 291 290 289 289 288 288 289 291 292 293
Wind_Speed
12 12 12 14 13 13 12 10 9 7 7 10 9 7 5 5 8 8 9 8 5 6 6 5 3 4 4 3 4 5 4 4 5
13 14 14 13 12 11 10 8 7 6 8 9 7 6 6 9 9 8 9 10 11 10 8 9 7 8 16 7 6 3 3 4 6
13 13 13 12 11 10 9 8 8 8 8 8 8 7 7 10 8 7 6 6 9 9 9 9 11 12 12 12 14 13 14 9 10
13 13 12 12 11 10 9 9 8 8 9 8 7 7 6 7 5 6 5 5 7 7 8 10 11 10 7 10 11 12 13 12 11
14 15 14 12 11 11 10 9 9 9 8 7 6 5 4 5 5 6 5 6 7 8 8 9 9 6 9 10 11 11 11 11 12
15 15 14 13 12 11 10 10 9 8 7 6 5 4 6 7 5 4 5 6 8 9 8 9 8 8 9 10 10 10 10 11 11
15 15 14 12 11 11 10 9 8 7 7 5 4 5 6 5 3 5 6 7 8 8 8 8 8 7 8 9 8 9 9 10 11
16 15 14 12 12 11 11 10 8 7 6 3 4 4 4 3 2 4 5 7 8 6 7 7 7 7 8 8 8 8 8 9 10
18 17 15 14 13 13 11 10 7 6 8 5 4 3 2 1 1 2 5 9 8 7 6 7 7 7 7 7 8 8 8 8 9
18 17 16 15 14 14 12 11 10 8 8 6 4 2 2 1 1 3 6 7 8 7 6 6 6 7 7 7 7 8 8 8 9
22 19 18 17 16 15 13 12 11 10 8 6 5 3 2 1 2 4 6 5 5 6 5 5 6 6 6 6 7 7 7 8 8
24 22 20 18 17 17 15 14 13 10 8 6 5 4 3 3 4 6 6 5 4 4 5 5 5 6 6 6 7 7 6 8 8
26 25 24 20 19 18 17 18 15 11 8 7 6 5 4 4 6 8 7 4 4 3 1 2 4 6 6 7 7 7 8 9 8
28 26 25 23 21 21 22 20 15 12 9 7 6 6 5 4 8 9 9 7 5 2 0 3 4 6 7 7 8 9 9 9 9
31 29 26 25 24 24 24 20 15 12 9 7 6 7 6 6 8 9 9 8 6 5 2 2 4 6 8 8 8 9 10 10 11
32 31 29 29 29 29 25 20 15 11 9 7 4 5 6 7 8 10 9 8 8 4 4 5 7 8 11 10 9 10 11 12 12
35 34 33 33 33 30 27 24 18 9 11 5 3 1 3 7 8 10 11 11 8 7 5 5 8 10 12 12 13 12 11 13 13
38 38 36 36 37 35 30 26 21 13 10 10 4 2 4 3 6 10 12 10 10 8 6 7 10 12 11 10 10 11 12 13 15
40 39 38 39 38 35 30 25 21 17 12 7 8 5 3 3 1 4 6 9 10 9 7 9 11 8 8 8 10 12 13 15 18
38 37 36 39 36 29 27 24 21 17 15 10 7 5 4 4 3 3 3 9 11 11 10 13 7 7 7 11 12 15 18 21 22
Wind_Direction
151 150 156 139 140 145 148 145 142 131 125 132 129 121 113 137 120 92 64 54 63 69 47 38 343 341 288 264 281 278 292 307 295
157 161 164 157 153 149 149 154 153 146 139 139 137 124 107 117 113 89 72 63 66 62 54 39 35 33 49 62 38 319 274 324 327
163 166 167 168 166 165 164 162 158 146 140 139 141 128 109 123 106 94 77 72 56 63 57 54 62 55 55 52 47 46 52 51 38
163 164 165 167 168 171 173 168 157 145 139 138 144 141 128 135 119 111 103 75 66 61 71 71 61 52 46 42 46 48 48 44 40
166 164 163 166 167 169 166 161 154 146 145 147 142 142 153 150 116 102 82 77 87 84 76 66 71 62 53 47 48 51 50 43 34
171 169 168 169 168 167 168 164 157 155 155 153 148 153 151 152 132 89 81 91 91 83 72 76 74 68 54 49 49 46 42 38 32
177 177 176 177 174 171 169 168 162 159 158 156 142 142 147 148 128 90 75 111 105 81 73 73 72 65 54 48 45 42 39 32 29
186 185 187 186 181 177 176 176 182 191 180 175 168 157 163 164 140 118 125 126 113 97 80 70 65 60 53 47 41 37 32 23 23
195 193 193 192 190 186 184 182 180 171 188 176 183 177 184 173 145 120 130 137 122 104 88 79 67 58 47 40 34 28 23 20 14
203 204 203 202 197 194 189 189 187 180 177 185 202 215 205 172 126 126 163 156 121 109 95 79 67 51 41 34 24 19 15 17 13
212 210 209 208 206 200 198 200 191 180 180 183 205 223 212 183 168 159 163 163 136 106 89 72 67 52 36 28 16 13 11 8 5
217 218 216 211 209 206 209 200 193 195 198 204 205 215 212 207 192 173 176 175 168 125 95 70 66 43 36 23 9 359 356 356 355
224 226 222 216 211 212 208 196 194 200 204 200 203 207 217 221 200 184 177 177 175 173 162 22 23 28 21 8 0 353 335 336 336
222 223 219 218 217 212 202 196 205 207 202 199 200 199 219 207 197 193 186 181 185 196 308 337 347 357 9 2 351 344 330 324 321
221 221 221 216 210 199 199 203 203 205 201 195 189 193 204 200 196 203 199 191 195 179 224 282 307 326 339 343 344 339 330 320 314
220 218 216 210 207 203 202 199 200 188 190 169 166 184 198 203 202 205 210 215 208 206 221 257 296 309 316 316 323 325 323 318 310
219 217 214 211 206 203 202 205 190 185 188 176 154 168 223 209 211 215 216 213 214 216 229 272 299 306 309 307 306 308 313 314 307
218 217 218 213 208 207 205 204 203 179 185 201 199 113 217 153 209 218 215 218 212 211 230 284 302 309 312 317 320 326 326 315 307
217 219 217 214 209 210 205 202 202 196 184 189 210 213 173 167 204 200 196 204 204 214 276 297 306 302 308 319 323 330 329 319 310
215 218 215 210 208 207 207 202 199 199 198 184 179 200 187 172 138 211 207 226 232 249 282 305 291 291 307 319 330 333 323 314 307